| time (UTC) | temp C | wind direction | speed KPH | gust KPH | rain 1hr cm | rain 24hr cm | rain mn cm | humidity % | barometer mb |
| 20260509151149 | 18 | 80 | 1.6 | 3.2 | 0.00 | 0.00 | 0.00 | 80 | 3403.1 |
| 20260509150647 | 18 | 113 | 0.0 | 0.0 | 0.00 | 0.00 | 0.00 | 82 | 3402.7 |
| 20260509150145 | 18 | 270 | 8.0 | 8.0 | 0.00 | 0.00 | 0.00 | 82 | 3403.0 |
| 20260509145641 | 18 | 33 | 3.2 | 4.8 | 0.00 | 0.00 | 0.00 | 82 | 3403.0 |
| 20260509145136 | 17 | 123 | 0.0 | 0.0 | 0.00 | 0.00 | 0.00 | 83 | 3403.3 |
| 20260509144633 | 17 | 148 | 4.8 | 4.8 | 0.00 | 0.00 | 0.00 | 83 | 3402.9 |
| 20260509144130 | 17 | 175 | 3.2 | 4.8 | 0.00 | 0.00 | 0.00 | 84 | 3402.6 |
| 20260509143627 | 17 | 139 | 0.0 | 3.2 | 0.00 | 0.00 | 0.00 | 85 | 3402.7 |
| 20260509143125 | 17 | 17 | 3.2 | 3.2 | 0.00 | 0.00 | 0.00 | 85 | 3402.8 |
| 20260509142620 | 17 | 305 | 3.2 | 4.8 | 0.00 | 0.00 | 0.00 | 86 | 3402.6 |
| 20260509142117 | 17 | 119 | 1.6 | 3.2 | 0.00 | 0.00 | 0.00 | 86 | 3402.6 |
| 20260509141612 | 17 | 3 | 11.3 | 16.1 | 0.00 | 0.00 | 0.00 | 87 | 3402.3 |
| 20260509141109 | 16 | 45 | 3.2 | 3.2 | 0.00 | 0.00 | 0.00 | 87 | 3402.6 |
| 20260509140606 | 16 | 157 | 1.6 | 3.2 | 0.00 | 0.00 | 0.00 | 88 | 3402.4 |
| 20260509140104 | 16 | 352 | 1.6 | 4.8 | 0.00 | 0.00 | 0.00 | 88 | 3402.3 |
| 20260509135601 | 16 | 134 | 3.2 | 3.2 | 0.00 | 0.00 | 0.00 | 88 | 3402.6 |
| 20260509135059 | 16 | 157 | 4.8 | 8.0 | 0.00 | 0.00 | 0.00 | 89 | 3402.3 |
| 20260509134555 | 16 | 61 | 1.6 | 3.2 | 0.00 | 0.00 | 0.00 | 89 | 3402.7 |
| 20260509134053 | 16 | 22 | 1.6 | 3.2 | 0.00 | 0.00 | 0.00 | 89 | 3402.4 |
| 20260509133550 | 16 | 358 | 1.6 | 3.2 | 0.00 | 0.00 | 0.00 | 90 | 3402.3 |
| 20260509133047 | 16 | 337 | 1.6 | 3.2 | 0.00 | 0.00 | 0.00 | 89 | 3402.7 |
| 20260509132545 | 15 | 28 | 0.0 | 3.2 | 0.00 | 0.00 | 0.00 | 90 | 3402.4 |
| 20260509132044 | 15 | 126 | 4.8 | 4.8 | 0.00 | 0.00 | 0.00 | 89 | 3402.8 |
| 20260509131539 | 15 | 160 | 4.8 | 8.0 | 0.00 | 0.00 | 0.00 | 90 | 3402.7 |
| 20260509131036 | 15 | 327 | 1.6 | 3.2 | 0.00 | 0.00 | 0.00 | 90 | 3402.4 |
| 20260509130532 | 15 | 232 | 1.6 | 3.2 | 0.00 | 0.00 | 0.00 | 91 | 3402.8 |
| 20260509130029 | 15 | 74 | 0.0 | 0.0 | 0.00 | 0.00 | 0.00 | 91 | 3402.6 |
| 20260509125525 | 15 | 303 | 4.8 | 4.8 | 0.00 | 0.00 | 0.00 | 91 | 3402.6 |
| 20260509125022 | 15 | 74 | 0.0 | 0.0 | 0.00 | 0.00 | 0.00 | 92 | 3402.6 |
| 20260509124519 | 15 | 63 | 0.0 | 0.0 | 0.00 | 0.00 | 0.00 | 92 | 3402.4 |
| 20260509124016 | 15 | 117 | 0.0 | 0.0 | 0.00 | 0.00 | 0.00 | 93 | 3402.3 |
| 20260509123514 | 15 | 52 | 0.0 | 3.2 | 0.00 | 0.00 | 0.00 | 94 | 3402.2 |
| 20260509123010 | 15 | 177 | 0.0 | 0.0 | 0.00 | 0.00 | 0.00 | 95 | 3402.2 |
| 20260509122506 | 15 | 148 | 1.6 | 4.8 | 0.00 | 0.00 | 0.00 | 95 | 3402.1 |
| 20260509122003 | 14 | 132 | 0.0 | 0.0 | 0.00 | 0.00 | 0.00 | 95 | 3402.2 |
| 20260509121500 | 14 | 124 | 0.0 | 0.0 | 0.00 | 0.00 | 0.00 | 95 | 3402.0 |
| 20260509120958 | 14 | 169 | 3.2 | 3.2 | 0.00 | 0.00 | 0.00 | 96 | 3401.8 |
| 20260509120455 | 14 | 74 | 0.0 | 0.0 | 0.00 | 0.00 | 0.00 | 96 | 3401.7 |
| 20260509115954 | 13 | 144 | 1.6 | 3.2 | 0.00 | 0.00 | 0.00 | 96 | 3401.5 |
| 20260509115450 | 13 | 118 | 0.0 | 0.0 | 0.00 | 0.00 | 0.00 | 96 | 3401.8 |
| 20260509114948 | 13 | 119 | 0.0 | 3.2 | 0.00 | 0.00 | 0.00 | 96 | 3401.4 |
| 20260509114446 | 13 | 119 | 0.0 | 0.0 | 0.00 | 0.00 | 0.00 | 96 | 3401.6 |
| 20260509113945 | 13 | 69 | 0.0 | 0.0 | 0.00 | 0.00 | 0.00 | 96 | 3401.5 |
| 20260509113442 | 13 | 69 | 0.0 | 0.0 | 0.00 | 0.00 | 0.00 | 96 | 3401.5 |
| 20260509112939 | 13 | 41 | 0.0 | 0.0 | 0.00 | 0.00 | 0.00 | 96 | 3401.6 |
| 20260509112436 | 13 | 41 | 0.0 | 0.0 | 0.00 | 0.00 | 0.00 | 96 | 3401.2 |
| 20260509111933 | 13 | 41 | 0.0 | 0.0 | 0.00 | 0.00 | 0.00 | 96 | 3401.2 |
| 20260509111431 | 13 | 41 | 0.0 | 0.0 | 0.00 | 0.00 | 0.00 | 96 | 3401.3 |
| 20260509110928 | 13 | 58 | 0.0 | 0.0 | 0.00 | 0.00 | 0.00 | 96 | 3401.3 |
| 20260509110423 | 13 | 58 | 0.0 | 0.0 | 0.00 | 0.00 | 0.00 | 96 | 3401.1 |
| 20260509105922 | 13 | 56 | 0.0 | 0.0 | 0.00 | 0.00 | 0.00 | 96 | 3401.1 |
| 20260509105420 | 13 | 25 | 3.2 | 3.2 | 0.00 | 0.00 | 0.00 | 96 | 3400.9 |
| 20260509104917 | 13 | 41 | 0.0 | 0.0 | 0.00 | 0.00 | 0.00 | 96 | 3400.9 |
| 20260509104413 | 13 | 41 | 0.0 | 0.0 | 0.00 | 0.00 | 0.00 | 95 | 3400.9 |
| 20260509103911 | 13 | 37 | 0.0 | 0.0 | 0.00 | 0.00 | 0.00 | 95 | 3400.9 |
| 20260509103408 | 13 | 89 | 0.0 | 0.0 | 0.00 | 0.00 | 0.00 | 95 | 3400.5 |
| 20260509102907 | 13 | 88 | 0.0 | 0.0 | 0.00 | 0.00 | 0.00 | 94 | 3400.6 |
| 20260509102404 | 14 | 87 | 0.0 | 0.0 | 0.00 | 0.00 | 0.00 | 94 | 3400.3 |
| 20260509101859 | 14 | 87 | 0.0 | 0.0 | 0.00 | 0.00 | 0.00 | 94 | 3400.3 |
| 20260509101355 | 14 | 50 | 0.0 | 0.0 | 0.00 | 0.00 | 0.00 | 93 | 3400.6 |
| 20260509100853 | 14 | 94 | 0.0 | 0.0 | 0.00 | 0.00 | 0.00 | 93 | 3400.8 |
| 20260509100350 | 14 | 96 | 0.0 | 0.0 | 0.00 | 0.00 | 0.00 | 93 | 3400.8 |
| 20260509095847 | 14 | 84 | 0.0 | 0.0 | 0.00 | 0.00 | 0.00 | 92 | 3400.7 |
| 20260509095344 | 14 | 88 | 0.0 | 0.0 | 0.00 | 0.00 | 0.00 | 92 | 3400.9 |
| 20260509094841 | 14 | 91 | 0.0 | 0.0 | 0.00 | 0.00 | 0.00 | 92 | 3401.1 |
| 20260509094338 | 14 | 29 | 1.6 | 3.2 | 0.00 | 0.00 | 0.00 | 91 | 3400.8 |
| 20260509093836 | 14 | 132 | 0.0 | 0.0 | 0.00 | 0.00 | 0.00 | 91 | 3400.8 |
| 20260509093332 | 15 | 132 | 0.0 | 0.0 | 0.00 | 0.00 | 0.00 | 90 | 3400.9 |
| 20260509092831 | 15 | 100 | 0.0 | 0.0 | 0.00 | 0.00 | 0.00 | 90 | 3400.9 |
| 20260509092328 | 15 | 68 | 1.6 | 3.2 | 0.00 | 0.00 | 0.00 | 89 | 3400.9 |
| 20260509091826 | 15 | 134 | 0.0 | 0.0 | 0.00 | 0.00 | 0.00 | 88 | 3401.3 |
| 20260509091323 | 15 | 126 | 0.0 | 0.0 | 0.00 | 0.00 | 0.00 | 87 | 3401.0 |
| 20260509090820 | 15 | 85 | 0.0 | 3.2 | 0.00 | 0.00 | 0.00 | 86 | 3400.7 |
| 20260509090317 | 15 | 59 | 0.0 | 3.2 | 0.00 | 0.00 | 0.00 | 85 | 3401.0 |
| 20260509085815 | 15 | 72 | 0.0 | 0.0 | 0.00 | 0.00 | 0.00 | 85 | 3400.9 |
| 20260509085312 | 15 | 159 | 0.0 | 0.0 | 0.00 | 0.00 | 0.00 | 84 | 3400.8 |
| 20260509084808 | 15 | 158 | 0.0 | 0.0 | 0.00 | 0.00 | 0.00 | 84 | 3400.9 |
| 20260509084306 | 15 | 158 | 0.0 | 0.0 | 0.00 | 0.00 | 0.00 | 84 | 3400.6 |
| 20260509083803 | 15 | 158 | 0.0 | 0.0 | 0.00 | 0.00 | 0.00 | 83 | 3400.9 |
| 20260509083300 | 15 | 158 | 0.0 | 0.0 | 0.00 | 0.00 | 0.00 | 83 | 3401.1 |
| 20260509082756 | 15 | 158 | 0.0 | 0.0 | 0.00 | 0.00 | 0.00 | 83 | 3401.1 |
| 20260509082253 | 15 | 159 | 0.0 | 0.0 | 0.00 | 0.00 | 0.00 | 83 | 3401.2 |
| 20260509081750 | 15 | 150 | 0.0 | 0.0 | 0.00 | 0.00 | 0.00 | 82 | 3401.3 |
| 20260509081247 | 15 | 199 | 1.6 | 3.2 | 0.00 | 0.00 | 0.00 | 82 | 3401.3 |
| 20260509080745 | 15 | 256 | 0.0 | 0.0 | 0.00 | 0.00 | 0.00 | 82 | 3401.5 |
| 20260509080243 | 15 | 154 | 0.0 | 0.0 | 0.00 | 0.00 | 0.00 | 82 | 3401.5 |
| 20260509075741 | 15 | 154 | 0.0 | 0.0 | 0.00 | 0.00 | 0.00 | 82 | 3401.4 |
| 20260509075238 | 15 | 155 | 0.0 | 0.0 | 0.00 | 0.00 | 0.00 | 81 | 3401.2 |
| 20260509074735 | 15 | 155 | 0.0 | 0.0 | 0.00 | 0.00 | 0.00 | 81 | 3401.5 |
| 20260509074233 | 15 | 155 | 0.0 | 0.0 | 0.00 | 0.00 | 0.00 | 81 | 3401.6 |
| 20260509073728 | 15 | 155 | 0.0 | 0.0 | 0.00 | 0.00 | 0.00 | 81 | 3401.4 |
| 20260509073225 | 15 | 155 | 0.0 | 0.0 | 0.00 | 0.00 | 0.00 | 80 | 3401.5 |
| 20260509072722 | 15 | 155 | 0.0 | 0.0 | 0.00 | 0.00 | 0.00 | 80 | 3401.5 |
| 20260509072219 | 15 | 156 | 0.0 | 0.0 | 0.00 | 0.00 | 0.00 | 80 | 3401.5 |
| 20260509071715 | 15 | 154 | 4.8 | 4.8 | 0.00 | 0.00 | 0.00 | 80 | 3401.6 |
| 20260509071213 | 15 | 153 | 0.0 | 0.0 | 0.00 | 0.00 | 0.00 | 81 | 3401.5 |
| 20260509070709 | 15 | 153 | 0.0 | 0.0 | 0.00 | 0.00 | 0.00 | 81 | 3401.4 |
| 20260509070206 | 15 | 154 | 1.6 | 3.2 | 0.00 | 0.00 | 0.00 | 80 | 3401.4 |
| 20260509065702 | 15 | 153 | 0.0 | 0.0 | 0.00 | 0.00 | 0.00 | 80 | 3401.4 |
| 20260509065158 | 15 | 154 | 0.0 | 0.0 | 0.00 | 0.00 | 0.00 | 79 | 3401.4 |
| 20260509064655 | 15 | 154 | 0.0 | 0.0 | 0.00 | 0.00 | 0.00 | 80 | 3401.4 |
| 20260509064153 | 15 | 151 | 0.0 | 3.2 | 0.00 | 0.00 | 0.00 | 80 | 3401.5 |
| 20260509063650 | 15 | 151 | 0.0 | 0.0 | 0.00 | 0.00 | 0.00 | 80 | 3401.6 |
| 20260509063146 | 15 | 151 | 0.0 | 0.0 | 0.00 | 0.00 | 0.00 | 80 | 3401.5 |
| 20260509062643 | 15 | 151 | 0.0 | 0.0 | 0.00 | 0.00 | 0.00 | 80 | 3401.4 |
| 20260509062140 | 14 | 152 | 0.0 | 0.0 | 0.00 | 0.00 | 0.00 | 80 | 3401.6 |
| 20260509061637 | 14 | 152 | 0.0 | 0.0 | 0.00 | 0.00 | 0.00 | 80 | 3401.6 |
| 20260509061135 | 14 | 153 | 0.0 | 0.0 | 0.00 | 0.00 | 0.00 | 81 | 3401.7 |
| 20260509060632 | 14 | 153 | 0.0 | 0.0 | 0.00 | 0.00 | 0.00 | 81 | 3401.7 |
| 20260509060128 | 14 | 148 | 0.0 | 0.0 | 0.00 | 0.00 | 0.00 | 82 | 3401.8 |
| 20260509055623 | 13 | 148 | 0.0 | 0.0 | 0.00 | 0.00 | 0.00 | 81 | 3402.0 |
| 20260509055119 | 13 | 148 | 0.0 | 0.0 | 0.00 | 0.00 | 0.00 | 83 | 3401.7 |
| 20260509054616 | 13 | 148 | 0.0 | 0.0 | 0.00 | 0.00 | 0.00 | 84 | 3401.7 |
| 20260509054114 | 13 | 148 | 0.0 | 0.0 | 0.00 | 0.00 | 0.00 | 85 | 3401.8 |
| 20260509053613 | 13 | 148 | 0.0 | 0.0 | 0.00 | 0.00 | 0.00 | 85 | 3401.8 |
| 20260509053109 | 13 | 148 | 0.0 | 0.0 | 0.00 | 0.00 | 0.00 | 86 | 3401.8 |
| 20260509052607 | 13 | 148 | 0.0 | 0.0 | 0.00 | 0.00 | 0.00 | 86 | 3401.9 |
| 20260509052105 | 13 | 148 | 0.0 | 0.0 | 0.00 | 0.00 | 0.00 | 86 | 3401.9 |
| 20260509051602 | 13 | 148 | 0.0 | 0.0 | 0.00 | 0.00 | 0.00 | 87 | 3401.9 |
| 20260509051059 | 13 | 149 | 0.0 | 0.0 | 0.00 | 0.00 | 0.00 | 86 | 3402.1 |
| 20260509050556 | 13 | 149 | 0.0 | 0.0 | 0.00 | 0.00 | 0.00 | 86 | 3402.2 |
| 20260509050052 | 13 | 149 | 0.0 | 0.0 | 0.00 | 0.00 | 0.00 | 85 | 3402.1 |
| 20260509045550 | 13 | 149 | 0.0 | 0.0 | 0.00 | 0.00 | 0.00 | 85 | 3402.1 |
| 20260509045047 | 13 | 149 | 0.0 | 0.0 | 0.00 | 0.00 | 0.00 | 84 | 3402.2 |
| 20260509044544 | 13 | 149 | 0.0 | 0.0 | 0.00 | 0.00 | 0.00 | 84 | 3402.2 |
| 20260509044042 | 13 | 149 | 0.0 | 0.0 | 0.00 | 0.00 | 0.00 | 85 | 3402.2 |
| 20260509043538 | 13 | 149 | 0.0 | 0.0 | 0.00 | 0.00 | 0.00 | 85 | 3402.1 |
| 20260509043033 | 12 | 149 | 0.0 | 0.0 | 0.00 | 0.00 | 0.00 | 85 | 3401.9 |
| 20260509042530 | 12 | 149 | 0.0 | 0.0 | 0.00 | 0.00 | 0.00 | 85 | 3402.3 |
| 20260509042026 | 12 | 149 | 0.0 | 0.0 | 0.00 | 0.00 | 0.00 | 85 | 3402.1 |
| 20260509041523 | 12 | 149 | 0.0 | 0.0 | 0.00 | 0.00 | 0.00 | 84 | 3401.9 |
| 20260509041021 | 12 | 149 | 0.0 | 0.0 | 0.00 | 0.00 | 0.00 | 84 | 3402.0 |
| 20260509040519 | 13 | 149 | 0.0 | 0.0 | 0.00 | 0.00 | 0.00 | 84 | 3401.9 |
| 20260509040015 | 13 | 149 | 0.0 | 0.0 | 0.00 | 0.00 | 0.00 | 84 | 3402.1 |
| 20260509035512 | 13 | 149 | 0.0 | 0.0 | 0.00 | 0.00 | 0.00 | 84 | 3402.0 |
| 20260509035009 | 13 | 149 | 0.0 | 0.0 | 0.00 | 0.00 | 0.00 | 84 | 3401.9 |
| 20260509034508 | 13 | 149 | 0.0 | 0.0 | 0.00 | 0.00 | 0.00 | 83 | 3402.1 |
| 20260509034004 | 13 | 149 | 0.0 | 0.0 | 0.00 | 0.00 | 0.00 | 82 | 3402.3 |
| 20260509033501 | 13 | 149 | 0.0 | 0.0 | 0.00 | 0.00 | 0.00 | 81 | 3402.3 |
| 20260509032957 | 13 | 149 | 0.0 | 0.0 | 0.00 | 0.00 | 0.00 | 81 | 3402.3 |
| 20260509032455 | 13 | 149 | 0.0 | 0.0 | 0.00 | 0.00 | 0.00 | 81 | 3402.2 |
| 20260509031952 | 13 | 149 | 0.0 | 0.0 | 0.00 | 0.00 | 0.00 | 82 | 3402.2 |
| 20260509031449 | 13 | 149 | 0.0 | 0.0 | 0.00 | 0.00 | 0.00 | 82 | 3402.3 |
| 20260509030946 | 13 | 149 | 0.0 | 0.0 | 0.00 | 0.00 | 0.00 | 81 | 3402.2 |
| 20260509030444 | 14 | 149 | 0.0 | 0.0 | 0.00 | 0.00 | 0.00 | 82 | 3402.2 |
| 20260509025941 | 14 | 149 | 0.0 | 0.0 | 0.00 | 0.00 | 0.00 | 81 | 3402.3 |
| 20260509025437 | 14 | 149 | 0.0 | 0.0 | 0.00 | 0.00 | 0.00 | 80 | 3402.2 |
| 20260509024932 | 15 | 149 | 0.0 | 0.0 | 0.00 | 0.00 | 0.00 | 80 | 3402.4 |
| 20260509024429 | 15 | 149 | 0.0 | 0.0 | 0.00 | 0.00 | 0.00 | 79 | 3402.3 |
| 20260509023925 | 15 | 149 | 0.0 | 0.0 | 0.00 | 0.00 | 0.00 | 78 | 3402.2 |
| 20260509023423 | 15 | 149 | 0.0 | 0.0 | 0.00 | 0.00 | 0.00 | 77 | 3402.6 |
| 20260509022919 | 15 | 149 | 0.0 | 3.2 | 0.00 | 0.00 | 0.00 | 76 | 3402.3 |
| 20260509022417 | 15 | 149 | 0.0 | 0.0 | 0.00 | 0.00 | 0.00 | 74 | 3402.6 |
| 20260509021914 | 15 | 149 | 0.0 | 0.0 | 0.00 | 0.00 | 0.00 | 76 | 3402.3 |
| 20260509021411 | 15 | 149 | 0.0 | 0.0 | 0.00 | 0.00 | 0.00 | 76 | 3402.3 |
| 20260509020908 | 15 | 149 | 0.0 | 0.0 | 0.00 | 0.00 | 0.00 | 76 | 3402.6 |
| 20260509020406 | 15 | 149 | 0.0 | 0.0 | 0.00 | 0.00 | 0.00 | 74 | 3402.7 |
| 20260509015903 | 15 | 149 | 0.0 | 0.0 | 0.00 | 0.00 | 0.00 | 74 | 3402.3 |
| 20260509015402 | 15 | 149 | 0.0 | 0.0 | 0.00 | 0.00 | 0.00 | 74 | 3402.3 |
| 20260509014858 | 16 | 149 | 0.0 | 0.0 | 0.00 | 0.00 | 0.00 | 74 | 3402.4 |
| 20260509014355 | 16 | 149 | 0.0 | 0.0 | 0.00 | 0.00 | 0.00 | 72 | 3402.3 |
| 20260509013851 | 16 | 149 | 0.0 | 0.0 | 0.00 | 0.00 | 0.00 | 72 | 3402.2 |
| 20260509013348 | 16 | 149 | 0.0 | 0.0 | 0.00 | 0.00 | 0.00 | 72 | 3402.1 |
| 20260509012844 | 16 | 149 | 0.0 | 0.0 | 0.00 | 0.00 | 0.00 | 71 | 3402.2 |
| 20260509012340 | 16 | 149 | 0.0 | 0.0 | 0.00 | 0.00 | 0.00 | 70 | 3402.3 |
| 20260509011838 | 17 | 149 | 0.0 | 0.0 | 0.00 | 0.00 | 0.00 | 68 | 3402.2 |
| 20260509011335 | 17 | 149 | 0.0 | 0.0 | 0.00 | 0.00 | 0.00 | 66 | 3402.2 |
| 20260509010833 | 17 | 149 | 0.0 | 0.0 | 0.00 | 0.00 | 0.00 | 66 | 3402.6 |
| 20260509010330 | 17 | 149 | 0.0 | 0.0 | 0.00 | 0.00 | 0.00 | 65 | 3402.2 |
| 20260509005828 | 18 | 149 | 0.0 | 0.0 | 0.00 | 0.00 | 0.00 | 65 | 3402.6 |
| 20260509005326 | 18 | 149 | 0.0 | 0.0 | 0.00 | 0.00 | 0.00 | 63 | 3402.6 |
| 20260509004826 | 18 | 149 | 0.0 | 0.0 | 0.00 | 0.00 | 0.00 | 61 | 3402.2 |
| 20260509004322 | 19 | 149 | 0.0 | 0.0 | 0.00 | 0.00 | 0.00 | 61 | 3402.4 |
| 20260509003820 | 19 | 149 | 0.0 | 0.0 | 0.00 | 0.00 | 0.00 | 60 | 3402.6 |
| 20260509003318 | 20 | 149 | 0.0 | 0.0 | 0.00 | 0.00 | 0.00 | 60 | 3402.3 |
| 20260509002815 | 20 | 149 | 0.0 | 0.0 | 0.00 | 0.00 | 0.00 | 59 | 3402.3 |
| 20260509002312 | 20 | 149 | 0.0 | 0.0 | 0.00 | 0.00 | 0.00 | 56 | 3402.4 |
| 20260509001810 | 20 | 149 | 0.0 | 0.0 | 0.00 | 0.00 | 0.00 | 55 | 3402.8 |
| 20260509001305 | 20 | 149 | 0.0 | 0.0 | 0.00 | 0.00 | 0.00 | 55 | 3402.3 |
| 20260509000803 | 21 | 149 | 0.0 | 0.0 | 0.00 | 0.00 | 0.00 | 54 | 3402.7 |
| 20260509000303 | 21 | 149 | 0.0 | 0.0 | 0.00 | 0.00 | 0.00 | 52 | 3402.7 |
| 20260508235757 | 21 | 149 | 0.0 | 0.0 | 0.00 | 0.00 | 0.00 | 52 | 3402.6 |
| 20260508235254 | 21 | 149 | 0.0 | 0.0 | 0.00 | 0.00 | 0.00 | 52 | 3402.6 |
| 20260508234751 | 21 | 200 | 1.6 | 4.8 | 0.00 | 0.00 | 0.00 | 50 | 3402.9 |
| 20260508234247 | 21 | 138 | 0.0 | 0.0 | 0.00 | 0.00 | 0.00 | 50 | 3402.6 |
| 20260508233741 | 21 | 105 | 0.0 | 0.0 | 0.00 | 0.00 | 0.00 | 52 | 3402.7 |
| 20260508233239 | 21 | 97 | 0.0 | 0.0 | 0.00 | 0.00 | 0.00 | 48 | 3402.8 |
| 20260508232736 | 21 | 115 | 0.0 | 0.0 | 0.00 | 0.00 | 0.00 | 48 | 3402.7 |
| 20260508232232 | 22 | 117 | 0.0 | 0.0 | 0.00 | 0.00 | 0.00 | 48 | 3402.8 |
| 20260508231730 | 22 | 153 | 1.6 | 3.2 | 0.00 | 0.00 | 0.00 | 48 | 3403.0 |
| 20260508231227 | 22 | 138 | 1.6 | 3.2 | 0.00 | 0.00 | 0.00 | 46 | 3402.9 |
| 20260508230724 | 22 | 82 | 0.0 | 0.0 | 0.00 | 0.00 | 0.00 | 46 | 3403.0 |
| 20260508230220 | 23 | 39 | 4.8 | 4.8 | 0.00 | 0.00 | 0.00 | 46 | 3403.0 |
| 20260508225718 | 23 | 131 | 1.6 | 3.2 | 0.00 | 0.00 | 0.00 | 44 | 3403.0 |
| 20260508225214 | 23 | 118 | 1.6 | 3.2 | 0.00 | 0.00 | 0.00 | 44 | 3403.0 |
| 20260508224712 | 23 | 112 | 1.6 | 3.2 | 0.00 | 0.00 | 0.00 | 45 | 3402.9 |
| 20260508224209 | 23 | 54 | 6.4 | 11.3 | 0.00 | 0.00 | 0.00 | 45 | 3403.0 |
| 20260508223707 | 23 | 154 | 1.6 | 3.2 | 0.00 | 0.00 | 0.00 | 46 | 3403.1 |
| 20260508223204 | 23 | 142 | 3.2 | 4.8 | 0.00 | 0.00 | 0.00 | 47 | 3403.1 |
| 20260508222701 | 23 | 126 | 1.6 | 3.2 | 0.00 | 0.00 | 0.00 | 44 | 3403.2 |
| 20260508222158 | 23 | 170 | 3.2 | 4.8 | 0.00 | 0.00 | 0.00 | 44 | 3403.2 |
| 20260508221654 | 23 | 115 | 0.0 | 0.0 | 0.00 | 0.00 | 0.00 | 44 | 3403.2 |
| 20260508221150 | 24 | 175 | 3.2 | 8.0 | 0.00 | 0.00 | 0.00 | 43 | 3403.3 |
| 20260508220647 | 24 | 161 | 1.6 | 3.2 | 0.00 | 0.00 | 0.00 | 46 | 3403.3 |
| 20260508220144 | 24 | 154 | 3.2 | 4.8 | 0.00 | 0.00 | 0.00 | 46 | 3403.1 |
| 20260508215640 | 24 | 163 | 8.0 | 11.3 | 0.00 | 0.00 | 0.00 | 44 | 3402.9 |
| 20260508215137 | 24 | 172 | 3.2 | 3.2 | 0.00 | 0.00 | 0.00 | 45 | 3403.0 |
| 20260508214634 | 23 | 88 | 1.6 | 3.2 | 0.00 | 0.00 | 0.00 | 45 | 3403.0 |
| 20260508214131 | 24 | 79 | 3.2 | 4.8 | 0.00 | 0.00 | 0.00 | 45 | 3403.0 |
| 20260508213628 | 24 | 141 | 3.2 | 4.8 | 0.00 | 0.00 | 0.00 | 45 | 3403.1 |
| 20260508213124 | 23 | 124 | 0.0 | 0.0 | 0.00 | 0.00 | 0.00 | 44 | 3403.1 |
| 20260508212620 | 23 | 106 | 1.6 | 3.2 | 0.00 | 0.00 | 0.00 | 48 | 3403.2 |
| 20260508212117 | 23 | 107 | 1.6 | 3.2 | 0.00 | 0.00 | 0.00 | 46 | 3403.5 |
| 20260508211612 | 23 | 158 | 4.8 | 8.0 | 0.00 | 0.00 | 0.00 | 46 | 3403.4 |
| 20260508211109 | 23 | 117 | 3.2 | 4.8 | 0.00 | 0.00 | 0.00 | 46 | 3403.3 |
| 20260508210605 | 23 | 162 | 3.2 | 4.8 | 0.00 | 0.00 | 0.00 | 50 | 3403.4 |
| 20260508210103 | 23 | 99 | 0.0 | 0.0 | 0.00 | 0.00 | 0.00 | 47 | 3403.5 |
| 20260508205600 | 22 | 123 | 4.8 | 4.8 | 0.00 | 0.00 | 0.00 | 48 | 3403.6 |
| 20260508205056 | 22 | 84 | 3.2 | 4.8 | 0.00 | 0.00 | 0.00 | 46 | 3403.5 |
| 20260508204553 | 22 | 151 | 4.8 | 4.8 | 0.00 | 0.00 | 0.00 | 50 | 3403.8 |
| 20260508204048 | 22 | 87 | 0.0 | 0.0 | 0.00 | 0.00 | 0.00 | 46 | 3403.8 |
| 20260508203545 | 22 | 117 | 1.6 | 3.2 | 0.00 | 0.00 | 0.00 | 49 | 3403.8 |
| 20260508203041 | 22 | 100 | 3.2 | 3.2 | 0.00 | 0.00 | 0.00 | 45 | 3403.9 |
| 20260508202538 | 23 | 70 | 6.4 | 8.0 | 0.00 | 0.00 | 0.00 | 45 | 3403.8 |
| 20260508202035 | 22 | 152 | 3.2 | 8.0 | 0.00 | 0.00 | 0.00 | 47 | 3404.0 |
| 20260508201532 | 22 | 189 | 3.2 | 4.8 | 0.00 | 0.00 | 0.00 | 46 | 3404.1 |
| 20260508201028 | 22 | 74 | 6.4 | 8.0 | 0.00 | 0.00 | 0.00 | 44 | 3404.2 |
| 20260508200526 | 22 | 97 | 0.0 | 3.2 | 0.00 | 0.00 | 0.00 | 49 | 3404.4 |
| 20260508200021 | 22 | 115 | 3.2 | 4.8 | 0.00 | 0.00 | 0.00 | 45 | 3404.4 |
| 20260508195518 | 22 | 98 | 0.0 | 0.0 | 0.00 | 0.00 | 0.00 | 48 | 3404.6 |
| 20260508195014 | 22 | 138 | 6.4 | 8.0 | 0.00 | 0.00 | 0.00 | 45 | 3404.8 |
| 20260508194511 | 23 | 115 | 4.8 | 4.8 | 0.00 | 0.00 | 0.00 | 45 | 3404.8 |
| 20260508194009 | 23 | 130 | 3.2 | 4.8 | 0.00 | 0.00 | 0.00 | 46 | 3404.8 |
| 20260508193505 | 23 | 85 | 1.6 | 3.2 | 0.00 | 0.00 | 0.00 | 43 | 3405.1 |
| 20260508193002 | 22 | 107 | 1.6 | 3.2 | 0.00 | 0.00 | 0.00 | 49 | 3405.2 |
| 20260508192458 | 22 | 166 | 3.2 | 4.8 | 0.00 | 0.00 | 0.00 | 48 | 3405.3 |
| 20260508191955 | 22 | 283 | 9.7 | 12.9 | 0.00 | 0.00 | 0.00 | 44 | 3405.5 |
| 20260508191452 | 22 | 93 | 3.2 | 4.8 | 0.00 | 0.00 | 0.00 | 47 | 3405.2 |
| 20260508190949 | 22 | 266 | 4.8 | 11.3 | 0.00 | 0.00 | 0.00 | 45 | 3405.5 |
| 20260508190446 | 22 | 185 | 3.2 | 4.8 | 0.00 | 0.00 | 0.00 | 44 | 3405.7 |
| 20260508185942 | 22 | 136 | 0.0 | 3.2 | 0.00 | 0.00 | 0.00 | 46 | 3405.5 |
| 20260508185440 | 22 | 15 | 3.2 | 4.8 | 0.00 | 0.00 | 0.00 | 45 | 3405.7 |
| 20260508184937 | 22 | 186 | 3.2 | 3.2 | 0.00 | 0.00 | 0.00 | 45 | 3405.6 |
| 20260508184435 | 22 | 147 | 0.0 | 3.2 | 0.00 | 0.00 | 0.00 | 46 | 3405.9 |
| 20260508183931 | 22 | 130 | 6.4 | 11.3 | 0.00 | 0.00 | 0.00 | 43 | 3405.8 |
| 20260508183428 | 22 | 104 | 3.2 | 4.8 | 0.00 | 0.00 | 0.00 | 45 | 3405.7 |
| 20260508182923 | 22 | 84 | 1.6 | 3.2 | 0.00 | 0.00 | 0.00 | 45 | 3405.7 |
| 20260508182420 | 22 | 164 | 4.8 | 8.0 | 0.00 | 0.00 | 0.00 | 44 | 3405.8 |
| 20260508181915 | 22 | 127 | 0.0 | 0.0 | 0.00 | 0.00 | 0.00 | 45 | 3405.8 |
| 20260508181412 | 22 | 110 | 1.6 | 3.2 | 0.00 | 0.00 | 0.00 | 46 | 3405.9 |
| 20260508180910 | 22 | 95 | 1.6 | 3.2 | 0.00 | 0.00 | 0.00 | 47 | 3406.0 |
| 20260508180406 | 22 | 193 | 4.8 | 8.0 | 0.00 | 0.00 | 0.00 | 48 | 3406.2 |
| 20260508175902 | 22 | 171 | 6.4 | 8.0 | 0.00 | 0.00 | 0.00 | 48 | 3406.0 |
| 20260508175359 | 22 | 93 | 0.0 | 3.2 | 0.00 | 0.00 | 0.00 | 49 | 3405.8 |
| 20260508174857 | 22 | 161 | 3.2 | 4.8 | 0.00 | 0.00 | 0.00 | 46 | 3406.0 |
| 20260508174354 | 21 | 126 | 0.0 | 3.2 | 0.00 | 0.00 | 0.00 | 49 | 3406.0 |
| 20260508173850 | 22 | 106 | 6.4 | 8.0 | 0.00 | 0.00 | 0.00 | 46 | 3405.8 |
| 20260508173348 | 21 | 103 | 1.6 | 3.2 | 0.00 | 0.00 | 0.00 | 43 | 3406.2 |
| 20260508172843 | 22 | 159 | 3.2 | 3.2 | 0.00 | 0.00 | 0.00 | 47 | 3406.3 |
| 20260508172341 | 21 | 162 | 4.8 | 8.0 | 0.00 | 0.00 | 0.00 | 50 | 3406.6 |
| 20260508171837 | 21 | 177 | 3.2 | 4.8 | 0.00 | 0.00 | 0.00 | 47 | 3406.5 |
| 20260508171334 | 21 | 175 | 4.8 | 8.0 | 0.00 | 0.00 | 0.00 | 45 | 3406.7 |
| 20260508170830 | 21 | 338 | 1.6 | 8.0 | 0.00 | 0.00 | 0.00 | 47 | 3406.7 |
| 20260508170328 | 21 | 195 | 3.2 | 4.8 | 0.00 | 0.00 | 0.00 | 46 | 3406.9 |
| 20260508165825 | 21 | 88 | 0.0 | 0.0 | 0.00 | 0.00 | 0.00 | 49 | 3407.0 |
| 20260508165322 | 20 | 199 | 3.2 | 4.8 | 0.00 | 0.00 | 0.00 | 49 | 3407.0 |
| 20260508164818 | 20 | 122 | 0.0 | 3.2 | 0.00 | 0.00 | 0.00 | 54 | 3407.0 |
| 20260508164315 | 21 | 119 | 4.8 | 8.0 | 0.00 | 0.00 | 0.00 | 47 | 3407.2 |
| 20260508163813 | 21 | 24 | 3.2 | 4.8 | 0.00 | 0.00 | 0.00 | 50 | 3407.3 |
| 20260508163310 | 20 | 84 | 1.6 | 3.2 | 0.00 | 0.00 | 0.00 | 50 | 3407.4 |
| 20260508162806 | 20 | 89 | 3.2 | 3.2 | 0.00 | 0.00 | 0.00 | 53 | 3407.7 |
| 20260508162306 | 20 | 139 | 1.6 | 4.8 | 0.00 | 0.00 | 0.00 | 55 | 3407.7 |
| 20260508161801 | 20 | 5 | 12.9 | 17.7 | 0.00 | 0.00 | 0.00 | 52 | 3407.7 |
| 20260508161257 | 20 | 165 | 3.2 | 4.8 | 0.00 | 0.00 | 0.00 | 53 | 3407.9 |
| 20260508160755 | 20 | 138 | 1.6 | 3.2 | 0.00 | 0.00 | 0.00 | 53 | 3408.0 |
| 20260508160253 | 20 | 85 | 1.6 | 3.2 | 0.00 | 0.00 | 0.00 | 55 | 3408.3 |
| 20260508155749 | 20 | 142 | 0.0 | 3.2 | 0.00 | 0.00 | 0.00 | 54 | 3408.3 |
| 20260508155246 | 19 | 303 | 3.2 | 4.8 | 0.00 | 0.00 | 0.00 | 53 | 3408.2 |
| 20260508154743 | 19 | 152 | 1.6 | 3.2 | 0.00 | 0.00 | 0.00 | 59 | 3408.5 |
| 20260508154241 | 19 | 173 | 1.6 | 3.2 | 0.00 | 0.00 | 0.00 | 54 | 3408.5 |
| 20260508153737 | 18 | 150 | 0.0 | 0.0 | 0.00 | 0.00 | 0.00 | 54 | 3408.5 |
| 20260508153235 | 18 | 108 | 3.2 | 3.2 | 0.00 | 0.00 | 0.00 | 59 | 3408.6 |
| 20260508152731 | 18 | 144 | 0.0 | 0.0 | 0.00 | 0.00 | 0.00 | 56 | 3408.6 |
| 20260508152227 | 18 | 133 | 1.6 | 3.2 | 0.00 | 0.00 | 0.00 | 58 | 3408.5 |
| 20260508151723 | 18 | 135 | 1.6 | 4.8 | 0.00 | 0.00 | 0.00 | 58 | 3408.7 |